owner,sensor,date,latitude,longitude,air_pressure(mBar),qcFlag 
ADCP,ioos:station:wmo:42361:1,2013-11-01T00:30:00Z,27.5500,-92.4900,1010.2,11111222 
ADCP,ioos:station:wmo:42361:1,2013-11-01T01:30:00Z,27.5500,-92.4900,1010.5,11111222 
ADCP,ioos:station:wmo:42361:1,2013-11-01T02:30:00Z,27.5500,-92.4900,1011.9,11111222 
ADCP,ioos:station:wmo:42361:1,2013-11-01T03:30:00Z,27.5500,-92.4900,1011.2,11111222 
ADCP,ioos:station:wmo:42361:1,2013-11-01T04:30:00Z,27.5500,-92.4900,1011.9,11111222 
ADCP,ioos:station:wmo:42361:1,2013-11-01T05:30:00Z,27.5500,-92.4900,1011.2,11111222 
ADCP,ioos:station:wmo:42361:1,2013-11-01T06:30:00Z,27.5500,-92.4900,1010.2,11111222 
ADCP,ioos:station:wmo:42361:1,2013-11-01T07:30:00Z,27.5500,-92.4900,1009.8,11111222 
ADCP,ioos:station:wmo:42361:1,2013-11-01T08:30:00Z,27.5500,-92.4900,1010.2,11111222 
ADCP,ioos:station:wmo:42361:1,2013-11-01T09:30:00Z,27.5500,-92.4900,1009.8,11111222 
ADCP,ioos:station:wmo:42361:1,2013-11-01T10:30:00Z,27.5500,-92.4900,1010.2,11111222 
ADCP,ioos:station:wmo:42361:1,2013-11-01T11:30:00Z,27.5500,-92.4900,1010.5,11111222 
ADCP,ioos:station:wmo:42361:1,2013-11-01T12:30:00Z,27.5500,-92.4900,1011.2,11111222 
ADCP,ioos:station:wmo:42361:1,2013-11-01T13:30:00Z,27.5500,-92.4900,1012.2,11111222 
ADCP,ioos:station:wmo:42361:1,2013-11-01T14:30:00Z,27.5500,-92.4900,1012.9,11111222 
ADCP,ioos:station:wmo:42361:1,2013-11-01T15:30:00Z,27.5500,-92.4900,1013.2,11111222 
ADCP,ioos:station:wmo:42361:1,2013-11-01T16:30:00Z,27.5500,-92.4900,1013.2,11111222 
ADCP,ioos:station:wmo:42361:1,2013-11-01T17:30:00Z,27.5500,-92.4900,1012.5,11111222 
ADCP,ioos:station:wmo:42361:1,2013-11-01T18:30:00Z,27.5500,-92.4900,1011.5,11111222 
ADCP,ioos:station:wmo:42361:1,2013-11-01T19:30:00Z,27.5500,-92.4900,1011.2,11111222 
ADCP,ioos:station:wmo:42361:1,2013-11-01T20:30:00Z,27.5500,-92.4900,1010.5,11111222 
ADCP,ioos:station:wmo:42361:1,2013-11-01T21:30:00Z,27.5500,-92.4900,1010.2,11111222 
ADCP,ioos:station:wmo:42361:1,2013-11-01T22:30:00Z,27.5500,-92.4900,1010.8,11111222 
ADCP,ioos:station:wmo:42361:1,2013-11-01T23:30:00Z,27.5500,-92.4900,1011.2,11111222 
ADCP,ioos:station:wmo:42361:1,2013-11-02T00:30:00Z,27.5500,-92.4900,1011.9,11111222 
ADCP,ioos:station:wmo:42361:1,2013-11-02T01:30:00Z,27.5500,-92.4900,1012.5,11111222 
ADCP,ioos:station:wmo:42361:1,2013-11-02T02:30:00Z,27.5500,-92.4900,1013.2,11111222 
ADCP,ioos:station:wmo:42361:1,2013-11-02T03:30:00Z,27.5500,-92.4900,1013.2,11111222 
ADCP,ioos:station:wmo:42361:1,2013-11-02T04:30:00Z,27.5500,-92.4900,1013.2,11111222 
ADCP,ioos:station:wmo:42361:1,2013-11-02T05:30:00Z,27.5500,-92.4900,1013.2,11111222 
ADCP,ioos:station:wmo:42361:1,2013-11-02T06:30:00Z,27.5500,-92.4900,1013.2,11111222 
ADCP,ioos:station:wmo:42361:1,2013-11-02T07:30:00Z,27.5500,-92.4900,1012.9,11111222 
ADCP,ioos:station:wmo:42361:1,2013-11-02T08:30:00Z,27.5500,-92.4900,1013.2,11111222 
ADCP,ioos:station:wmo:42361:1,2013-11-02T09:30:00Z,27.5500,-92.4900,1014.2,11111222 
ADCP,ioos:station:wmo:42361:1,2013-11-02T10:30:00Z,27.5500,-92.4900,1014.6,11111222 
ADCP,ioos:station:wmo:42361:1,2013-11-02T11:30:00Z,27.5500,-92.4900,1014.9,11111222 
ADCP,ioos:station:wmo:42361:1,2013-11-02T12:30:00Z,27.5500,-92.4900,1014.6,11111222 
ADCP,ioos:station:wmo:42361:1,2013-11-02T13:30:00Z,27.5500,-92.4900,1015.2,11111222 
ADCP,ioos:station:wmo:42361:1,2013-11-02T14:30:00Z,27.5500,-92.4900,1016.3,11111222 
ADCP,ioos:station:wmo:42361:1,2013-11-02T15:30:00Z,27.5500,-92.4900,1016.9,11111222 
ADCP,ioos:station:wmo:42361:1,2013-11-02T16:30:00Z,27.5500,-92.4900,1017.3,11111222 
ADCP,ioos:station:wmo:42361:1,2013-11-02T17:30:00Z,27.5500,-92.4900,1017.3,11111222 
ADCP,ioos:station:wmo:42361:1,2013-11-02T18:30:00Z,27.5500,-92.4900,1016.9,11111222 
ADCP,ioos:station:wmo:42361:1,2013-11-02T19:30:00Z,27.5500,-92.4900,1016.3,11111222 
ADCP,ioos:station:wmo:42361:1,2013-11-02T20:30:00Z,27.5500,-92.4900,1016.3,11111222 
ADCP,ioos:station:wmo:42361:1,2013-11-02T21:30:00Z,27.5500,-92.4900,1016.6,11111222 
ADCP,ioos:station:wmo:42361:1,2013-11-02T22:30:00Z,27.5500,-92.4900,1017.3,11111222 
ADCP,ioos:station:wmo:42361:1,2013-11-02T23:30:00Z,27.5500,-92.4900,1018.0,11111222 
ADCP,ioos:station:wmo:42361:1,2013-11-03T00:30:00Z,27.5500,-92.4900,1019.0,11111222 
ADCP,ioos:station:wmo:42361:1,2013-11-03T01:30:00Z,27.5500,-92.4900,1019.3,11111222 
ADCP,ioos:station:wmo:42361:1,2013-11-03T02:30:00Z,27.5500,-92.4900,1019.6,11111222 
ADCP,ioos:station:wmo:42361:1,2013-11-03T03:30:00Z,27.5500,-92.4900,1020.0,11111222 
ADCP,ioos:station:wmo:42361:1,2013-11-03T04:30:00Z,27.5500,-92.4900,1020.0,11111222 
ADCP,ioos:station:wmo:42361:1,2013-11-03T05:30:00Z,27.5500,-92.4900,1020.0,11111222 
ADCP,ioos:station:wmo:42361:1,2013-11-03T06:30:00Z,27.5500,-92.4900,1019.3,11111222 
ADCP,ioos:station:wmo:42361:1,2013-11-03T07:30:00Z,27.5500,-92.4900,1019.3,11111222 
ADCP,ioos:station:wmo:42361:1,2013-11-03T08:30:00Z,27.5500,-92.4900,1019.3,11111222 
ADCP,ioos:station:wmo:42361:1,2013-11-03T09:30:00Z,27.5500,-92.4900,1019.3,11111222 
ADCP,ioos:station:wmo:42361:1,2013-11-03T10:30:00Z,27.5500,-92.4900,1019.6,11111222 
ADCP,ioos:station:wmo:42361:1,2013-11-03T11:30:00Z,27.5500,-92.4900,1020.0,11111222 
ADCP,ioos:station:wmo:42361:1,2013-11-03T12:30:00Z,27.5500,-92.4900,1020.3,11111222 
ADCP,ioos:station:wmo:42361:1,2013-11-03T13:30:00Z,27.5500,-92.4900,1020.7,11111222 
ADCP,ioos:station:wmo:42361:1,2013-11-03T14:30:00Z,27.5500,-92.4900,1020.7,11111222 
ADCP,ioos:station:wmo:42361:1,2013-11-03T15:30:00Z,27.5500,-92.4900,1020.7,11111222 
ADCP,ioos:station:wmo:42361:1,2013-11-03T16:30:00Z,27.5500,-92.4900,1021.0,11111222 
ADCP,ioos:station:wmo:42361:1,2013-11-03T17:30:00Z,27.5500,-92.4900,1020.3,11111222 
ADCP,ioos:station:wmo:42361:1,2013-11-03T18:30:00Z,27.5500,-92.4900,1019.3,11111222 
ADCP,ioos:station:wmo:42361:1,2013-11-03T19:30:00Z,27.5500,-92.4900,1018.3,11111222 
ADCP,ioos:station:wmo:42361:1,2013-11-03T20:30:00Z,27.5500,-92.4900,1018.3,11111222 
ADCP,ioos:station:wmo:42361:1,2013-11-03T21:30:00Z,27.5500,-92.4900,1018.0,11111222 
ADCP,ioos:station:wmo:42361:1,2013-11-03T22:30:00Z,27.5500,-92.4900,1018.0,11111222 
ADCP,ioos:station:wmo:42361:1,2013-11-03T23:30:00Z,27.5500,-92.4900,1018.6,11111222 
ADCP,ioos:station:wmo:42361:1,2013-11-04T00:30:00Z,27.5500,-92.4900,1019.0,11111222 
ADCP,ioos:station:wmo:42361:1,2013-11-04T01:30:00Z,27.5500,-92.4900,1019.3,11111222 
ADCP,ioos:station:wmo:42361:1,2013-11-04T02:30:00Z,27.5500,-92.4900,1019.6,11111222 
ADCP,ioos:station:wmo:42361:1,2013-11-04T03:30:00Z,27.5500,-92.4900,1019.6,11111222 
ADCP,ioos:station:wmo:42361:1,2013-11-04T04:30:00Z,27.5500,-92.4900,1019.3,11111222 
ADCP,ioos:station:wmo:42361:1,2013-11-04T05:30:00Z,27.5500,-92.4900,1018.6,11111222 
ADCP,ioos:station:wmo:42361:1,2013-11-04T06:30:00Z,27.5500,-92.4900,1017.6,11111222 
ADCP,ioos:station:wmo:42361:1,2013-11-04T07:30:00Z,27.5500,-92.4900,1017.6,11111222 
ADCP,ioos:station:wmo:42361:1,2013-11-04T08:30:00Z,27.5500,-92.4900,1017.3,11111222 
ADCP,ioos:station:wmo:42361:1,2013-11-04T09:30:00Z,27.5500,-92.4900,1017.3,11111222 
ADCP,ioos:station:wmo:42361:1,2013-11-04T10:30:00Z,27.5500,-92.4900,1017.6,11111222 
ADCP,ioos:station:wmo:42361:1,2013-11-04T11:30:00Z,27.5500,-92.4900,1017.6,11111222 
ADCP,ioos:station:wmo:42361:1,2013-11-04T12:30:00Z,27.5500,-92.4900,1018.0,11111222 
ADCP,ioos:station:wmo:42361:1,2013-11-04T13:30:00Z,27.5500,-92.4900,1018.6,11111222 
ADCP,ioos:station:wmo:42361:1,2013-11-04T14:30:00Z,27.5500,-92.4900,1019.3,11111222 
ADCP,ioos:station:wmo:42361:1,2013-11-04T15:30:00Z,27.5500,-92.4900,1020.0,11111222 
ADCP,ioos:station:wmo:42361:1,2013-11-04T16:30:00Z,27.5500,-92.4900,1020.3,11111222 
ADCP,ioos:station:wmo:42361:1,2013-11-04T17:30:00Z,27.5500,-92.4900,1019.6,11111222 
ADCP,ioos:station:wmo:42361:1,2013-11-04T18:30:00Z,27.5500,-92.4900,1018.6,11111222 
ADCP,ioos:station:wmo:42361:1,2013-11-04T19:30:00Z,27.5500,-92.4900,1018.0,11111222 
ADCP,ioos:station:wmo:42361:1,2013-11-04T20:30:00Z,27.5500,-92.4900,1018.0,11111222 
ADCP,ioos:station:wmo:42361:1,2013-11-04T21:30:00Z,27.5500,-92.4900,1017.6,11111222 
ADCP,ioos:station:wmo:42361:1,2013-11-09T02:30:00Z,27.5500,-92.4900,1021.7,11111222 
ADCP,ioos:station:wmo:42361:1,2013-11-09T03:30:00Z,27.5500,-92.4900,1021.3,11111222 
ADCP,ioos:station:wmo:42361:1,2013-11-09T04:30:00Z,27.5500,-92.4900,1021.3,11111222 
ADCP,ioos:station:wmo:42361:1,2013-11-09T05:30:00Z,27.5500,-92.4900,1020.7,11111222 
ADCP,ioos:station:wmo:42361:1,2013-11-09T06:30:00Z,27.5500,-92.4900,1020.3,11111222 
ADCP,ioos:station:wmo:42361:1,2013-11-09T07:30:00Z,27.5500,-92.4900,1019.6,11111222 
ADCP,ioos:station:wmo:42361:1,2013-11-09T08:30:00Z,27.5500,-92.4900,1019.3,11111222 
ADCP,ioos:station:wmo:42361:1,2013-11-09T09:30:00Z,27.5500,-92.4900,1018.6,11111222 
ADCP,ioos:station:wmo:42361:1,2013-11-09T10:30:00Z,27.5500,-92.4900,1018.6,11111222 
ADCP,ioos:station:wmo:42361:1,2013-11-09T11:30:00Z,27.5500,-92.4900,1019.0,11111222 
ADCP,ioos:station:wmo:42361:1,2013-11-09T12:30:00Z,27.5500,-92.4900,1019.6,11111222 
ADCP,ioos:station:wmo:42361:1,2013-11-09T13:30:00Z,27.5500,-92.4900,1020.7,11111222 
ADCP,ioos:station:wmo:42361:1,2013-11-09T14:30:00Z,27.5500,-92.4900,1021.0,11111222 
ADCP,ioos:station:wmo:42361:1,2013-11-09T15:30:00Z,27.5500,-92.4900,1021.3,11111222 
ADCP,ioos:station:wmo:42361:1,2013-11-09T16:30:00Z,27.5500,-92.4900,1021.0,11111222 
ADCP,ioos:station:wmo:42361:1,2013-11-09T17:30:00Z,27.5500,-92.4900,1020.7,11111222 
ADCP,ioos:station:wmo:42361:1,2013-11-09T18:30:00Z,27.5500,-92.4900,1020.3,11111222 
ADCP,ioos:station:wmo:42361:1,2013-11-09T19:30:00Z,27.5500,-92.4900,1020.0,11111222 
ADCP,ioos:station:wmo:42361:1,2013-11-09T20:30:00Z,27.5500,-92.4900,1019.6,11111222 
ADCP,ioos:station:wmo:42361:1,2013-11-09T21:30:00Z,27.5500,-92.4900,1019.6,11111222 
ADCP,ioos:station:wmo:42361:1,2013-11-09T22:30:00Z,27.5500,-92.4900,1019.3,11111222 
ADCP,ioos:station:wmo:42361:1,2013-11-09T23:30:00Z,27.5500,-92.4900,1019.6,11111222 
ADCP,ioos:station:wmo:42361:1,2013-11-10T00:30:00Z,27.5500,-92.4900,1020.0,11111222 
ADCP,ioos:station:wmo:42361:1,2013-11-10T01:30:00Z,27.5500,-92.4900,1020.3,11111222 
ADCP,ioos:station:wmo:42361:1,2013-11-10T02:30:00Z,27.5500,-92.4900,1020.3,11111222 
ADCP,ioos:station:wmo:42361:1,2013-11-10T03:30:00Z,27.5500,-92.4900,1020.7,11111222 
ADCP,ioos:station:wmo:42361:1,2013-11-10T04:30:00Z,27.5500,-92.4900,1020.7,11111222 
ADCP,ioos:station:wmo:42361:1,2013-11-10T05:30:00Z,27.5500,-92.4900,1020.3,11111222 
ADCP,ioos:station:wmo:42361:1,2013-11-10T06:30:00Z,27.5500,-92.4900,1020.0,11111222 
ADCP,ioos:station:wmo:42361:1,2013-11-10T07:30:00Z,27.5500,-92.4900,1019.6,11111222 
ADCP,ioos:station:wmo:42361:1,2013-11-10T08:30:00Z,27.5500,-92.4900,1019.6,11111222 
ADCP,ioos:station:wmo:42361:1,2013-11-10T09:30:00Z,27.5500,-92.4900,1020.0,11111222 
ADCP,ioos:station:wmo:42361:1,2013-11-10T10:30:00Z,27.5500,-92.4900,1020.3,11111222 
ADCP,ioos:station:wmo:42361:1,2013-11-10T11:30:00Z,27.5500,-92.4900,1020.7,11111222 
ADCP,ioos:station:wmo:42361:1,2013-11-10T12:30:00Z,27.5500,-92.4900,1021.0,11111222 
ADCP,ioos:station:wmo:42361:1,2013-11-10T13:30:00Z,27.5500,-92.4900,1021.7,11111222 
ADCP,ioos:station:wmo:42361:1,2013-11-10T14:30:00Z,27.5500,-92.4900,1022.4,11111222 
ADCP,ioos:station:wmo:42361:1,2013-11-10T15:30:00Z,27.5500,-92.4900,1022.4,11111222 
ADCP,ioos:station:wmo:42361:1,2013-11-10T16:30:00Z,27.5500,-92.4900,1022.0,11111222 
ADCP,ioos:station:wmo:42361:1,2013-11-10T17:30:00Z,27.5500,-92.4900,1021.7,11111222 
ADCP,ioos:station:wmo:42361:1,2013-11-10T18:30:00Z,27.5500,-92.4900,1021.0,11111222 
ADCP,ioos:station:wmo:42361:1,2013-11-10T19:30:00Z,27.5500,-92.4900,1020.3,11111222 
ADCP,ioos:station:wmo:42361:1,2013-11-10T20:30:00Z,27.5500,-92.4900,1020.0,11111222 
ADCP,ioos:station:wmo:42361:1,2013-11-10T21:30:00Z,27.5500,-92.4900,1020.0,11111222 
ADCP,ioos:station:wmo:42361:1,2013-11-10T22:30:00Z,27.5500,-92.4900,1020.3,11111222 
ADCP,ioos:station:wmo:42361:1,2013-11-10T23:30:00Z,27.5500,-92.4900,1020.3,11111222 
ADCP,ioos:station:wmo:42361:1,2013-11-11T00:30:00Z,27.5500,-92.4900,1021.0,11111222 
ADCP,ioos:station:wmo:42361:1,2013-11-11T01:30:00Z,27.5500,-92.4900,1021.0,11111222 
ADCP,ioos:station:wmo:42361:1,2013-11-11T02:30:00Z,27.5500,-92.4900,1021.3,11111222 
ADCP,ioos:station:wmo:42361:1,2013-11-11T03:30:00Z,27.5500,-92.4900,1021.7,11111222 
ADCP,ioos:station:wmo:42361:1,2013-11-11T04:30:00Z,27.5500,-92.4900,1021.3,11111222 
ADCP,ioos:station:wmo:42361:1,2013-11-11T05:30:00Z,27.5500,-92.4900,1021.0,11111222 
ADCP,ioos:station:wmo:42361:1,2013-11-11T06:30:00Z,27.5500,-92.4900,1020.7,11111222 
ADCP,ioos:station:wmo:42361:1,2013-11-11T07:30:00Z,27.5500,-92.4900,1020.3,11111222 
ADCP,ioos:station:wmo:42361:1,2013-11-11T08:30:00Z,27.5500,-92.4900,1020.0,11111222 
ADCP,ioos:station:wmo:42361:1,2013-11-11T09:30:00Z,27.5500,-92.4900,1019.6,11111222 
ADCP,ioos:station:wmo:42361:1,2013-11-11T10:30:00Z,27.5500,-92.4900,1019.6,11111222 
ADCP,ioos:station:wmo:42361:1,2013-11-11T11:30:00Z,27.5500,-92.4900,1019.6,11111222 
ADCP,ioos:station:wmo:42361:1,2013-11-11T12:30:00Z,27.5500,-92.4900,1020.7,11111222 
ADCP,ioos:station:wmo:42361:1,2013-11-11T13:30:00Z,27.5500,-92.4900,1021.3,11111222 
ADCP,ioos:station:wmo:42361:1,2013-11-11T14:30:00Z,27.5500,-92.4900,1021.7,11111222 
ADCP,ioos:station:wmo:42361:1,2013-11-11T15:30:00Z,27.5500,-92.4900,1022.0,11111222 
ADCP,ioos:station:wmo:42361:1,2013-11-11T16:30:00Z,27.5500,-92.4900,1021.7,11111222 
ADCP,ioos:station:wmo:42361:1,2013-11-11T17:30:00Z,27.5500,-92.4900,1021.0,11111222 
ADCP,ioos:station:wmo:42361:1,2013-11-11T18:30:00Z,27.5500,-92.4900,1020.3,11111222 
ADCP,ioos:station:wmo:42361:1,2013-11-11T19:30:00Z,27.5500,-92.4900,1019.6,11111222 
ADCP,ioos:station:wmo:42361:1,2013-11-11T20:30:00Z,27.5500,-92.4900,1019.0,11111222 
ADCP,ioos:station:wmo:42361:1,2013-11-11T21:30:00Z,27.5500,-92.4900,1019.0,11111222 
ADCP,ioos:station:wmo:42361:1,2013-11-11T22:30:00Z,27.5500,-92.4900,1019.0,11111222 
ADCP,ioos:station:wmo:42361:1,2013-11-11T23:30:00Z,27.5500,-92.4900,1019.3,11111222 
ADCP,ioos:station:wmo:42361:1,2013-11-12T00:30:00Z,27.5500,-92.4900,1020.0,11111222 
ADCP,ioos:station:wmo:42361:1,2013-11-12T01:30:00Z,27.5500,-92.4900,1020.0,11111222 
ADCP,ioos:station:wmo:42361:1,2013-11-12T02:30:00Z,27.5500,-92.4900,1020.7,11111222 
ADCP,ioos:station:wmo:42361:1,2013-11-12T03:30:00Z,27.5500,-92.4900,1020.7,11111222 
ADCP,ioos:station:wmo:42361:1,2013-11-12T04:30:00Z,27.5500,-92.4900,1020.7,11111222 
ADCP,ioos:station:wmo:42361:1,2013-11-12T05:30:00Z,27.5500,-92.4900,1020.3,11111222 
ADCP,ioos:station:wmo:42361:1,2013-11-12T06:30:00Z,27.5500,-92.4900,1020.3,11111222 
ADCP,ioos:station:wmo:42361:1,2013-11-12T07:30:00Z,27.5500,-92.4900,1020.0,11111222 
ADCP,ioos:station:wmo:42361:1,2013-11-12T08:30:00Z,27.5500,-92.4900,1019.6,11111222 
ADCP,ioos:station:wmo:42361:1,2013-11-12T09:30:00Z,27.5500,-92.4900,1019.6,11111222 
ADCP,ioos:station:wmo:42361:1,2013-11-12T10:30:00Z,27.5500,-92.4900,1019.6,11111222 
ADCP,ioos:station:wmo:42361:1,2013-11-12T11:30:00Z,27.5500,-92.4900,1020.7,11111222 
ADCP,ioos:station:wmo:42361:1,2013-11-12T12:30:00Z,27.5500,-92.4900,1021.0,11111222 
ADCP,ioos:station:wmo:42361:1,2013-11-12T13:30:00Z,27.5500,-92.4900,1022.0,11111222 
ADCP,ioos:station:wmo:42361:1,2013-11-12T14:30:00Z,27.5500,-92.4900,1022.7,11111222 
ADCP,ioos:station:wmo:42361:1,2013-11-12T15:30:00Z,27.5500,-92.4900,1023.0,11111222 
ADCP,ioos:station:wmo:42361:1,2013-11-12T16:30:00Z,27.5500,-92.4900,1022.7,11111222 
ADCP,ioos:station:wmo:42361:1,2013-11-12T17:30:00Z,27.5500,-92.4900,1022.4,11111222 
ADCP,ioos:station:wmo:42361:1,2013-11-12T18:30:00Z,27.5500,-92.4900,1022.0,11111222 
ADCP,ioos:station:wmo:42361:1,2013-11-12T19:30:00Z,27.5500,-92.4900,1021.7,11111222 
ADCP,ioos:station:wmo:42361:1,2013-11-12T20:30:00Z,27.5500,-92.4900,1021.7,11111222 
ADCP,ioos:station:wmo:42361:1,2013-11-12T21:30:00Z,27.5500,-92.4900,1022.4,11111222 
ADCP,ioos:station:wmo:42361:1,2013-11-12T22:30:00Z,27.5500,-92.4900,1022.7,11111222 
ADCP,ioos:station:wmo:42361:1,2013-11-12T23:30:00Z,27.5500,-92.4900,1023.4,11111222 
ADCP,ioos:station:wmo:42361:1,2013-11-13T00:30:00Z,27.5500,-92.4900,1024.0,11111222 
ADCP,ioos:station:wmo:42361:1,2013-11-13T01:30:00Z,27.5500,-92.4900,1024.7,11111222 
ADCP,ioos:station:wmo:42361:1,2013-11-13T02:30:00Z,27.5500,-92.4900,1025.7,11111222 
ADCP,ioos:station:wmo:42361:1,2013-11-13T03:30:00Z,27.5500,-92.4900,1026.4,11111222 
ADCP,ioos:station:wmo:42361:1,2013-11-13T04:30:00Z,27.5500,-92.4900,1026.8,11111222 
ADCP,ioos:station:wmo:42361:1,2013-11-13T05:30:00Z,27.5500,-92.4900,1026.4,11111222 
ADCP,ioos:station:wmo:42361:1,2013-11-13T06:30:00Z,27.5500,-92.4900,1026.4,11111222 
ADCP,ioos:station:wmo:42361:1,2013-11-13T07:30:00Z,27.5500,-92.4900,1027.4,11111222 
ADCP,ioos:station:wmo:42361:1,2013-11-13T08:30:00Z,27.5500,-92.4900,1027.4,11111222 
ADCP,ioos:station:wmo:42361:1,2013-11-13T09:30:00Z,27.5500,-92.4900,1027.1,11111222 
ADCP,ioos:station:wmo:42361:1,2013-11-13T10:30:00Z,27.5500,-92.4900,1027.4,11111222 
ADCP,ioos:station:wmo:42361:1,2013-11-13T11:30:00Z,27.5500,-92.4900,1028.1,11111222 
ADCP,ioos:station:wmo:42361:1,2013-11-13T12:30:00Z,27.5500,-92.4900,1028.8,11111222 
ADCP,ioos:station:wmo:42361:1,2013-11-13T13:30:00Z,27.5500,-92.4900,1029.1,11111222 
ADCP,ioos:station:wmo:42361:1,2013-11-13T14:30:00Z,27.5500,-92.4900,1029.1,11111222 
ADCP,ioos:station:wmo:42361:1,2013-11-13T15:30:00Z,27.5500,-92.4900,1029.5,11111222 
ADCP,ioos:station:wmo:42361:1,2013-11-13T16:30:00Z,27.5500,-92.4900,1029.5,11111222 
ADCP,ioos:station:wmo:42361:1,2013-11-13T17:30:00Z,27.5500,-92.4900,1029.1,11111222 
ADCP,ioos:station:wmo:42361:1,2013-11-13T18:30:00Z,27.5500,-92.4900,1028.1,11111222 
ADCP,ioos:station:wmo:42361:1,2013-11-13T19:30:00Z,27.5500,-92.4900,1027.8,11111222 
ADCP,ioos:station:wmo:42361:1,2013-11-13T20:30:00Z,27.5500,-92.4900,1027.4,11111222 
ADCP,ioos:station:wmo:42361:1,2013-11-13T21:30:00Z,27.5500,-92.4900,1027.1,11111222 
ADCP,ioos:station:wmo:42361:1,2013-11-13T22:30:00Z,27.5500,-92.4900,1027.1,11111222 
ADCP,ioos:station:wmo:42361:1,2013-11-13T23:30:00Z,27.5500,-92.4900,1027.4,11111222 
ADCP,ioos:station:wmo:42361:1,2013-11-14T00:30:00Z,27.5500,-92.4900,1027.4,11111222 
ADCP,ioos:station:wmo:42361:1,2013-11-14T01:30:00Z,27.5500,-92.4900,1027.4,11111222 
ADCP,ioos:station:wmo:42361:1,2013-11-14T02:30:00Z,27.5500,-92.4900,1027.4,11111222 
ADCP,ioos:station:wmo:42361:1,2013-11-14T03:30:00Z,27.5500,-92.4900,1027.4,11111222 
ADCP,ioos:station:wmo:42361:1,2013-11-14T04:30:00Z,27.5500,-92.4900,1026.8,11111222 
ADCP,ioos:station:wmo:42361:1,2013-11-14T05:30:00Z,27.5500,-92.4900,1026.4,11111222 
ADCP,ioos:station:wmo:42361:1,2013-11-14T06:30:00Z,27.5500,-92.4900,1025.7,11111222 
ADCP,ioos:station:wmo:42361:1,2013-11-14T07:30:00Z,27.5500,-92.4900,1024.4,11111222 
ADCP,ioos:station:wmo:42361:1,2013-11-14T08:30:00Z,27.5500,-92.4900,1024.4,11111222 
ADCP,ioos:station:wmo:42361:1,2013-11-14T09:30:00Z,27.5500,-92.4900,1023.7,11111222 
ADCP,ioos:station:wmo:42361:1,2013-11-14T10:30:00Z,27.5500,-92.4900,1023.4,11111222 
ADCP,ioos:station:wmo:42361:1,2013-11-14T11:30:00Z,27.5500,-92.4900,1023.7,11111222 
ADCP,ioos:station:wmo:42361:1,2013-11-14T12:30:00Z,27.5500,-92.4900,1023.7,11111222 
ADCP,ioos:station:wmo:42361:1,2013-11-14T13:30:00Z,27.5500,-92.4900,1024.0,11111222 
ADCP,ioos:station:wmo:42361:1,2013-11-14T14:30:00Z,27.5500,-92.4900,1024.0,11111222 
ADCP,ioos:station:wmo:42361:1,2013-11-14T15:30:00Z,27.5500,-92.4900,1024.0,11111222 
ADCP,ioos:station:wmo:42361:1,2013-11-14T16:30:00Z,27.5500,-92.4900,1023.4,11111222 
ADCP,ioos:station:wmo:42361:1,2013-11-14T17:30:00Z,27.5500,-92.4900,1022.7,11111222 
ADCP,ioos:station:wmo:42361:1,2013-11-14T18:30:00Z,27.5500,-92.4900,1021.7,11111222 
ADCP,ioos:station:wmo:42361:1,2013-11-14T19:30:00Z,27.5500,-92.4900,1020.3,11111222 
ADCP,ioos:station:wmo:42361:1,2013-11-14T20:30:00Z,27.5500,-92.4900,1019.6,11111222 
ADCP,ioos:station:wmo:42361:1,2013-11-14T21:30:00Z,27.5500,-92.4900,1019.6,11111222 
ADCP,ioos:station:wmo:42361:1,2013-11-14T22:30:00Z,27.5500,-92.4900,1019.3,11111222 
ADCP,ioos:station:wmo:42361:1,2013-11-14T23:30:00Z,27.5500,-92.4900,1019.3,11111222 
ADCP,ioos:station:wmo:42361:1,2013-11-15T00:30:00Z,27.5500,-92.4900,1019.3,11111222 
ADCP,ioos:station:wmo:42361:1,2013-11-15T01:30:00Z,27.5500,-92.4900,1019.0,11111222 
ADCP,ioos:station:wmo:42361:1,2013-11-15T02:30:00Z,27.5500,-92.4900,1019.0,11111222 
ADCP,ioos:station:wmo:42361:1,2013-11-15T03:30:00Z,27.5500,-92.4900,1019.0,11111222 
ADCP,ioos:station:wmo:42361:1,2013-11-15T04:30:00Z,27.5500,-92.4900,1018.3,11111222 
ADCP,ioos:station:wmo:42361:1,2013-11-15T05:30:00Z,27.5500,-92.4900,1017.3,11111222 
ADCP,ioos:station:wmo:42361:1,2013-11-15T06:30:00Z,27.5500,-92.4900,1017.3,11111222 
ADCP,ioos:station:wmo:42361:1,2013-11-15T07:30:00Z,27.5500,-92.4900,1016.6,11111222 
ADCP,ioos:station:wmo:42361:1,2013-11-15T08:30:00Z,27.5500,-92.4900,1015.6,11111222 
ADCP,ioos:station:wmo:42361:1,2013-11-15T09:30:00Z,27.5500,-92.4900,1015.2,11111222 
ADCP,ioos:station:wmo:42361:1,2013-11-15T10:30:00Z,27.5500,-92.4900,1015.2,11111222 
ADCP,ioos:station:wmo:42361:1,2013-11-15T11:30:00Z,27.5500,-92.4900,1015.6,11111222 
ADCP,ioos:station:wmo:42361:1,2013-11-15T12:30:00Z,27.5500,-92.4900,1015.6,11111222 
ADCP,ioos:station:wmo:42361:1,2013-11-15T13:30:00Z,27.5500,-92.4900,1015.6,11111222 
ADCP,ioos:station:wmo:42361:1,2013-11-15T14:30:00Z,27.5500,-92.4900,1016.3,11111222 
ADCP,ioos:station:wmo:42361:1,2013-11-15T15:30:00Z,27.5500,-92.4900,1016.6,11111222 
ADCP,ioos:station:wmo:42361:1,2013-11-15T16:30:00Z,27.5500,-92.4900,1016.3,11111222 
ADCP,ioos:station:wmo:42361:1,2013-11-15T17:30:00Z,27.5500,-92.4900,1015.6,11111222 
ADCP,ioos:station:wmo:42361:1,2013-11-15T18:30:00Z,27.5500,-92.4900,1014.9,11111222 
ADCP,ioos:station:wmo:42361:1,2013-11-15T19:30:00Z,27.5500,-92.4900,1014.2,11111222 
ADCP,ioos:station:wmo:42361:1,2013-11-15T20:30:00Z,27.5500,-92.4900,1013.5,11111222 
ADCP,ioos:station:wmo:42361:1,2013-11-15T21:30:00Z,27.5500,-92.4900,1013.5,11111222 
ADCP,ioos:station:wmo:42361:1,2013-11-15T22:30:00Z,27.5500,-92.4900,1013.2,11111222 
ADCP,ioos:station:wmo:42361:1,2013-11-15T23:30:00Z,27.5500,-92.4900,1013.9,11111222 
ADCP,ioos:station:wmo:42361:1,2013-11-16T00:30:00Z,27.5500,-92.4900,1014.2,11111222 
ADCP,ioos:station:wmo:42361:1,2013-11-16T01:30:00Z,27.5500,-92.4900,1014.6,11111222 
ADCP,ioos:station:wmo:42361:1,2013-11-16T02:30:00Z,27.5500,-92.4900,1015.2,11111222 
ADCP,ioos:station:wmo:42361:1,2013-11-16T03:30:00Z,27.5500,-92.4900,1015.2,11111222 
ADCP,ioos:station:wmo:42361:1,2013-11-16T04:30:00Z,27.5500,-92.4900,1015.6,11111222 
ADCP,ioos:station:wmo:42361:1,2013-11-16T05:30:00Z,27.5500,-92.4900,1015.6,11111222 
ADCP,ioos:station:wmo:42361:1,2013-11-16T06:30:00Z,27.5500,-92.4900,1015.2,11111222 
ADCP,ioos:station:wmo:42361:1,2013-11-16T07:30:00Z,27.5500,-92.4900,1014.6,11111222 
ADCP,ioos:station:wmo:42361:1,2013-11-16T08:30:00Z,27.5500,-92.4900,1014.2,11111222 
ADCP,ioos:station:wmo:42361:1,2013-11-16T09:30:00Z,27.5500,-92.4900,1013.9,11111222 
ADCP,ioos:station:wmo:42361:1,2013-11-16T10:30:00Z,27.5500,-92.4900,1013.5,11111222 
ADCP,ioos:station:wmo:42361:1,2013-11-16T11:30:00Z,27.5500,-92.4900,1013.9,11111222 
ADCP,ioos:station:wmo:42361:1,2013-11-16T12:30:00Z,27.5500,-92.4900,1014.6,11111222 
ADCP,ioos:station:wmo:42361:1,2013-11-16T13:30:00Z,27.5500,-92.4900,1015.2,11111222 
ADCP,ioos:station:wmo:42361:1,2013-11-16T14:30:00Z,27.5500,-92.4900,1015.6,11111222 
ADCP,ioos:station:wmo:42361:1,2013-11-16T15:30:00Z,27.5500,-92.4900,1015.6,11111222 
ADCP,ioos:station:wmo:42361:1,2013-11-16T16:30:00Z,27.5500,-92.4900,1015.6,11111222 
ADCP,ioos:station:wmo:42361:1,2013-11-16T17:30:00Z,27.5500,-92.4900,1015.2,11111222 
ADCP,ioos:station:wmo:42361:1,2013-11-16T18:30:00Z,27.5500,-92.4900,1014.2,11111222 
ADCP,ioos:station:wmo:42361:1,2013-11-16T19:30:00Z,27.5500,-92.4900,1012.9,11111222 
ADCP,ioos:station:wmo:42361:1,2013-11-16T20:30:00Z,27.5500,-92.4900,1012.5,11111222 